Quick Transport Solutions Inc.

QuickTSI Load Board


Search Freight by Criteria



Load Search Results

Page 28 of 1,984 results
Pickup City Drop City Pickup Date Delivery Equipment Weight Size Company Phone
Salinas, CAGrantsville, UT11/20/2017 Mon Van38Full 53Coyote Logistics(773) 904-9709 174155
Salinas, CAJacksonville, FL11/20/2017 Mon11/24/2017 FriReefer42Full 48Total Quality Logistics(800) 580-3101 Ext 52466
Salinas, CALaveen, AZ11/20/2017 Mon11/20/2017 MonReefer35Full 53Total Quality Logistics(800) 580-3101 Ext 55430
Salinas, CAMira Loma, CA11/20/2017 Mon Van27Full 53Coyote Logistics(773) 904-9709 174155
Salinas, CAPhoenix, AZ11/20/2017 Mon11/20/2017 MonReefer35Full 53Total Quality Logistics(800) 580-3101 Ext 55430


Salinas, CATucson, AZ11/20/2017 Mon11/20/2017 MonReefer35Full 53Total Quality Logistics(800) 580-3101 Ext 55430
Salinas, CATyler, TX11/20/2017 Mon11/25/2017 SatReefer40Full 53Total Quality Logistics(800) 580-3101 Ext 51784
Salinas, CAGlendale, AZ11/20/2017 08:00 Mon11/22/2017 WedReefer35Full 53Total Quality Logistics(800) 580-3101 Ext 53140
Salinas, CATucson, AZ11/20/2017 08:00 Mon11/20/2017 MonReefer35Full 53Total Quality Logistics(800) 580-3101 Ext 55430
Salinas, CAWindsor, ON11/20/2017 08:00 Mon11/24/2017 FriReefer13Full 48Total Quality Logistics(800) 580-3101 Ext 58645
Salinas, CABrooklyn, NY11/24/2017 Fri Reefer43Full 53ST Freight LLC(920) 686-8200
Salinas, CAKansas City, MO11/25/2017 Sat11/28/2017 TueReefer28Full 48Total Quality Logistics(800) 580-3101 EXT. 50804
San Bernardino, CAHouston, TX11/17/2017 Fri11/20/2017 MonVan0Full 53Total Quality Logistics(800) 580-3101 x 50474
San Bernardino, CALas Vegas, NV11/17/2017 Fri11/17/2017 Fri1Full 48Total Quality Logistics(800) 580-3101 ext 57458// PARTIAL 4x10
San Bernardino, CAMccarran, NV11/17/2017 Fri Van42Full 53Coyote Logistics Rate:$1800(773) 904-9709 ID 174155 LD 11788926
San Bernardino, CAMyerstown, PA11/17/2017 Fri11/21/2017 TueVan0Full 48Total Quality Logistics(800) 580-3101 Ext 53384 ( 2 DROP )


San Bernardino, CATracy, CA11/17/2017 Fri Van30Full 53Coyote Logistics(773) 904-9709 EXT. 174155
San Bernardino, CAMemphis, TN11/17/2017 07:00 Fri11/20/2017 MonVan or Reefer39Full 48Total Quality Logistics(800) 580-3101 Ext 58982
San Bernardino, CACasa Grande, AZ11/17/2017 11:00 Fri11/18/2017 SatVan43Full 53Total Quality Logistics(800) 580-3101 Ext 57874
San Bernardino, CACharlotte, NC11/17/2017 13:00 Fri11/21/2017 TueVan20Full 53Total Quality Logistics(800) 580-3101 Ext 51439
San Bernardino, CAGreensboro, NC11/17/2017 13:00 Fri11/21/2017 TueVan20Full 53Total Quality Logistics(800) 580-3101 Ext 51439
San Bernardino, CALockport, IL11/17/2017 14:30 Fri11/21/2017 08:00 TueVan0Full 48Mode Transportation(845) 278-4000
San Bernardino, CAUnion City, GA11/17/2017 15:00 Fri11/21/2017 08:00 TueVan12Full 53Total Quality Logistics(800) 580-3101 Ext 57352
San Bernardino, CAJacksonville, FL11/17/2017 16:00 Fri11/22/2017 08:00 WedReefer0Full 53Total Quality Logistics(800) 580-3101 Ext 57352
San Bernardino, CAOrlando, FL11/17/2017 16:00 Fri11/22/2017 08:00 WedReefer0Full 53Total Quality Logistics(800) 580-3101 Ext 57352
San Bernardino, CABeaverton, OR11/20/2017 Mon11/22/2017 07:00 WedReefer30Full 53Total Quality Logistics(800) 580-3101 Ext 55853
San Bernardino, CACovington, OH11/20/2017 Mon11/23/2017 ThuReefer39Full 48Total Quality Logistics(800) 580-3101 EXT 54218
San Bernardino, CAReno, NV11/20/2017 Mon11/21/2017 TueVan or Reefer39Full 48Total Quality Logistics(800) 580-3101 Ext 51036
San Bernardino, CARiverside, CA11/20/2017 Mon Van0Full 53Coyote Logistics Rate:$300(773) 904-9709 x174155
San Bernardino, CASacramento, CA11/20/2017 Mon11/21/2017 TueVan0Full 48Total Quality Logistics(800) 580-3101 ext 55626
San Bernardino, CATempe, AZ11/20/2017 Mon11/20/2017 MonVan0Full 48Total Quality Logistics(800) 580-3101 Ext 55626


San Bernardino, CATuscon, AZ11/20/2017 Mon Van41Full 53Coyote Logistics(773) 904-9709 ext 174155
San Bernardino, CACovington, OH11/21/2017 Tue11/24/2017 FriReefer39Full 48Total Quality Logistics(800) 580-3101 EXT 54218
San Bernardino, CAReno, NV11/21/2017 Tue11/22/2017 WedVan or Reefer39Full 48Total Quality Logistics(800) 580-3101 Ext 51036
San Bernardino, CAHouston, TX11/27/2017 Mon Van38Full 53Trinity Logistics Inc.(817) 776-5151
San Bruno, CAMoraine, OH11/20/2017 Mon11/24/2017 FriVan0Full 53Total Quality Logistics(800) 580-3101 EXT44888
San Bruno, CADayton, OH11/27/2017 Mon12/01/2017 FriVan0Full 53Total Quality Logistics(800) 580-3101 Ext 44888 1 pick 1 drop
San Diego, CABryan, TX11/17/2017 Fri11/20/2017 MonPower Only20Full 48Total Quality Logistics(800) 580-3101 ext. 55290
San Diego, CABryan, TX11/17/2017 Fri11/20/2017 MonPower Only20Full 48Total Quality Logistics(800) 580-3101 ext. 55290 TOWAWAY READY NOW
San Diego, CAChannelview, TX11/17/2017 Fri11/20/2017 MonPower Only20Full 48Total Quality Logistics(800) 580-3101 ext. 55290
San Diego, CAChannelview, TX11/17/2017 Fri11/20/2017 MonPower Only20Full 48Total Quality Logistics(800) 580-3101 ext. 55290 TOWAWAY READY NOW
San Diego, CACharleston, SC11/17/2017 Fri11/20/2017 MonVan0Full 53Total Quality Logistics(800) 580-3101 x58538 HAZMAT
San Diego, CADallas, TX11/17/2017 Fri Van35Full 53Coyote Logistics Rate:$3800(773) 904-9709 Post ID 174153
San Diego, CADelmar, DE11/17/2017 Fri11/24/2017 FriPower Only1Full 53Total Quality Logistics(800) 580-3101 ext. 55290
San Diego, CADetroit, MI11/17/2017 Fri11/17/2017 FriReefer0Full 53Total Quality Logistics(800) 580-3101 ..
San Diego, CAHamilton, NJ11/17/2017 Fri11/21/2017 TueReefer30Full 48Total Quality Logistics(800) 580-3101 x51602
San Diego, CAHanover, MD11/17/2017 Fri11/20/2017 MonVan4Full 48Total Quality Logistics(800) 580-3101 Ext 53897
San Diego, CAHanover, MD11/17/2017 Fri11/21/2017 TueVan4Full 53Total Quality Logistics(800) 580-3101 Ext 53897
San Diego, CAMiami, FL11/17/2017 Fri11/21/2017 TueReefer40Full 53Total Quality Logistics(800) 580-3101 Ext 51678
San Diego, CANacogdoches, TX11/17/2017 Fri11/20/2017 MonPower Only20Full 48Total Quality Logistics(800) 580-3101 ext. 55290
About QuickTSI

QuickTSI is your one-stop-shop for everything you need to run your transportation and freight logistics business. Our website allows you to post load or find trucks, post trucks or find loads, look up carrier profiles, view trucking companies, find truck driving jobs, and DOT medical examniers.

Contact Us

Quick Transport Solutions, Inc.
11501 Dublin Blvd. Suite 200
Dublin, CA 94568

510-887-9300
510-284-7280

Mailing Address

Quick Transport Solutions, Inc.
PO Box 3686
Hayward, CA 94544-3686

Terms & Conditions    Privacy Policy

© 2011-2017 Quick Transport Solutions Inc.